Location: Bois de la Silve
(44.4667°N, 6.7833°E)
Time: 08:25:32
(UTC+00:00)

SL-24 DEB - Pass Details

Date: 14 July 2020
Orbit: 667 x 698 km, 92.0° (Epoch: 14 August)

Event Time Altitude Azimuth Distance (km) Brightness Sun altitude
Rises 00:55:23 0° 1° (N) 3,067 8.9 -21.6°
Reaches altitude 10° 00:57:40 10° 358° (N) 2,151 7.8 -21.5°
Maximum altitude 01:02:21 63° 279° (W) 779 4.4 -21.2°
Enters shadow 01:03:22 49° 227° (SW) 892 4.4 -21.1°
